Willimantic, CT

6:59 AM EDT on March 25, 2017 (GMT -0400)
Windham

Weather History for KIJD - February, 2014

Change the Weather History Date:

Monday, February 3, 2014

  Actual Average Record
Temperature  
Mean Temperature 27 °F -  
Max Temperature 37 °F 38 °F 57 °F (1983)
Min Temperature 17 °F 16 °F -16 °F (1961)
Degree Days  
Heating Degree Days 38    
Moisture  
Dew Point 26 °F    
Average Humidity 86    
Maximum Humidity 96    
Minimum Humidity 68    
Precipitation  
Precipitation 0.22 in - - ()
Sea Level Pressure  
Sea Level Pressure 30.19 in    
Wind  
Wind Speed 5 mph (North)    
Max Wind Speed 12 mph    
Max Gust Speed -    
Visibility 3 miles    
Events Fog , Snow    
Averages and records for this station are not official NWS values.
T = Trace of Precipitation, MM = Missing Value Source: NWS Daily Summary

Daily Weather History Graph

Daily Weather History Graph

Search for Another Location

Airport or City:

Trip Planner

Search our weather history database for the weather conditions in past years. The results will help you decide how hot, cold, wet, or windy it might be!

Date:

Astronomy

Feb. 03, 2014 Rise Set
Actual Time 6:58 AM EST 5:06 PM EST
Civil Twilight 6:29 AM EST 5:36 PM EST
Nautical Twilight 5:56 AM EST 6:09 PM EST
Astronomical Twilight 5:23 AM EST 6:41 PM EST
Moon 8:55 AM EST (2/3) 9:58 PM EST (2/3)
Length of Visible Light 11h 06m
Length of Day
10h 07m
Waxing Crescent, 19% of the Moon is Illuminated
Feb 3
Waxing Crescent
Feb 6
First Quarter
Feb 14
Full
Feb 22
Last Quarter
Mar 1
New

Hourly Weather History & Observations

Time (EST) Temp. Windchill Dew Point Humidity Pressure Visibility Wind Dir Wind Speed Gust Speed Precip Events Conditions
12:52 AM 37.9 °F 33.5 °F 28.0 °F 68% 30.09 in 10.0 mi NNW 5.8 mph - N/A   Scattered Clouds
1:52 AM 37.0 °F 32.4 °F 28.0 °F 70% 30.09 in 10.0 mi NNW 5.8 mph - N/A   Overcast
2:52 AM 37.0 °F 32.4 °F 28.0 °F 70% 30.11 in 10.0 mi NNW 5.8 mph - N/A   Overcast
3:52 AM 37.0 °F 32.4 °F 28.0 °F 70% 30.12 in 10.0 mi NNW 5.8 mph - N/A   Overcast
4:52 AM 36.0 °F 32.1 °F 28.0 °F 73% 30.13 in 10.0 mi NNW 4.6 mph - N/A   Overcast
5:52 AM 36.0 °F 31.1 °F 28.0 °F 73% 30.14 in 10.0 mi NNW 5.8 mph - N/A   Overcast
6:52 AM 36.0 °F - 27.0 °F 70% 30.14 in 10.0 mi Calm Calm - N/A   Overcast
7:44 AM 35.1 °F - 28.9 °F 78% 30.15 in 3.0 mi Calm Calm - 0.00 in Snow Light Snow
7:48 AM 35.6 °F - 28.4 °F 75% 30.15 in 1.8 mi North - - 0.00 in Snow Light Snow
7:52 AM 35.1 °F - 28.9 °F 78% 30.16 in 1.2 mi Calm Calm - 0.00 in Snow Light Snow
8:24 AM 34.0 °F - 30.0 °F 85% 30.16 in 2.0 mi Calm Calm - 0.00 in Snow Light Snow
8:39 AM 33.1 °F - 30.9 °F 92% 30.16 in 1.5 mi Calm Calm - 0.01 in Snow Light Snow
8:52 AM 33.1 °F - 30.9 °F 92% 30.17 in 0.8 mi Calm Calm - 0.01 in Snow Light Snow
9:16 AM 33.1 °F - 32.0 °F 96% 30.17 in 0.2 mi Calm Calm - 0.02 in Fog , Snow Snow
9:35 AM 33.1 °F - 30.9 °F 92% 30.18 in 0.2 mi Calm Calm - 0.04 in Fog , Snow Light Snow
9:44 AM 33.1 °F 30.0 °F 30.9 °F 92% 30.18 in 0.5 mi North 3.5 mph - 0.05 in Fog , Snow Light Snow
9:52 AM 33.1 °F 26.1 °F 30.9 °F 92% 30.19 in 0.5 mi NE 8.1 mph - 0.05 in Fog , Snow Light Snow
10:29 AM 32.0 °F 24.8 °F 28.9 °F 88% 30.20 in 0.5 mi NNE 8.1 mph - 0.02 in Fog , Snow Snow
10:52 AM 32.0 °F 24.2 °F 28.9 °F 88% 30.20 in 0.5 mi NNE 9.2 mph - 0.03 in Fog , Snow Snow
11:29 AM 30.0 °F 21.7 °F 27.0 °F 88% 30.17 in 0.5 mi NNE 9.2 mph - 0.01 in Fog , Snow Snow
11:52 AM 30.0 °F 23.2 °F 27.0 °F 88% 30.17 in 0.5 mi NNE 6.9 mph - 0.02 in Fog , Snow Snow
12:04 PM 30.0 °F 24.1 °F 27.0 °F 88% 30.16 in 0.8 mi North 5.8 mph - 0.00 in Snow Light Snow
12:52 PM 30.0 °F 23.2 °F 27.0 °F 88% 30.14 in 0.8 mi NNE 6.9 mph - 0.02 in Snow Light Snow
1:45 PM 30.0 °F 22.4 °F 28.0 °F 92% 30.12 in 0.5 mi NNE 8.1 mph - 0.03 in Fog , Snow Snow
1:52 PM 30.0 °F 20.5 °F 27.0 °F 88% 30.12 in 0.5 mi NNE 11.5 mph - 0.04 in Fog , Snow Snow
2:24 PM 30.0 °F 24.1 °F 28.0 °F 92% 30.12 in 0.8 mi North 5.8 mph - 0.01 in Snow Light Snow
2:52 PM 30.0 °F 23.2 °F 27.0 °F 88% 30.14 in 0.8 mi North 6.9 mph - 0.02 in Snow Light Snow
3:00 PM 30.0 °F 23.2 °F 27.0 °F 88% 30.13 in 0.8 mi NNE 6.9 mph - 0.01 in Snow Light Snow
3:17 PM 30.0 °F 23.2 °F 27.0 °F 88% 30.13 in 0.8 mi North 6.9 mph - 0.01 in Snow Light Snow
3:24 PM 30.0 °F 23.2 °F 27.0 °F 88% 30.14 in 0.8 mi North 6.9 mph - 0.02 in Snow Light Snow
3:52 PM 30.0 °F 22.4 °F 27.0 °F 88% 30.15 in 0.8 mi North 8.1 mph - 0.03 in Snow Light Snow
3:58 PM 30.0 °F 22.4 °F 27.0 °F 88% 30.14 in 1.0 mi North 8.1 mph - 0.00 in Snow Light Snow
4:05 PM 30.0 °F 22.4 °F 27.0 °F 88% 30.15 in 1.2 mi North 8.1 mph - 0.00 in Snow Light Snow
4:37 PM 30.0 °F 21.7 °F 27.0 °F 88% 30.15 in 1.2 mi NNE 9.2 mph - 0.00 in Snow Light Snow
4:52 PM 30.0 °F 24.1 °F 27.0 °F 88% 30.17 in 1.5 mi North 5.8 mph - 0.00 in Snow Light Snow
5:05 PM 30.0 °F 25.2 °F 27.0 °F 88% 30.17 in 2.5 mi North 4.6 mph - 0.00 in Snow Light Snow
5:27 PM 30.0 °F 24.1 °F 27.0 °F 88% 30.18 in 3.0 mi North 5.8 mph - 0.00 in Snow Light Snow
5:33 PM 30.0 °F 23.2 °F 27.0 °F 88% 30.17 in 3.0 mi North 6.9 mph - 0.00 in Snow Light Snow
5:52 PM 30.0 °F 24.1 °F 27.0 °F 88% 30.18 in 5.0 mi North 5.8 mph - 0.00 in Snow Light Snow
6:52 PM 30.0 °F 24.1 °F 26.1 °F 85% 30.20 in 8.0 mi North 5.8 mph - 0.00 in   Overcast
7:52 PM 30.0 °F 24.1 °F 25.0 °F 82% 30.23 in 10.0 mi North 5.8 mph - N/A   Overcast
8:52 PM 28.9 °F 25.2 °F 26.1 °F 89% 30.25 in 10.0 mi North 3.5 mph - N/A   Overcast
9:52 PM 25.0 °F 20.7 °F 23.0 °F 92% 30.26 in 5.0 mi NNE 3.5 mph - N/A   Clear
10:19 PM 24.1 °F - 21.9 °F 91% 30.27 in 1.5 mi Calm Calm - N/A   Clear
10:27 PM 24.1 °F - 21.9 °F 91% 30.27 in 0.5 mi Calm Calm - N/A Fog Light Freezing Fog
10:52 PM 24.1 °F - 21.9 °F 91% 30.30 in 1.0 mi Calm Calm - N/A   Scattered Clouds
11:01 PM 23.0 °F - 21.0 °F 92% 30.30 in 4.0 mi Calm Calm - N/A   Scattered Clouds
11:15 PM 21.9 °F - 19.0 °F 89% 30.30 in 2.0 mi Calm Calm - N/A   Scattered Clouds
11:25 PM 19.9 °F - 17.1 °F 89% 30.29 in 3.0 mi Calm Calm - N/A   Partly Cloudy
11:27 PM 21.0 °F - 17.1 °F 85% 30.29 in 1.8 mi Calm Calm - N/A   Partly Cloudy
11:32 PM 21.0 °F - 18.0 °F 88% 30.29 in 0.5 mi Calm Calm - N/A Fog Light Freezing Fog
11:40 PM 19.0 °F - 18.0 °F 96% 30.29 in 0.2 mi Calm Calm - N/A Fog Light Freezing Fog
11:47 PM 17.6 °F - 15.8 °F 93% 30.29 in 0.2 mi Calm Calm - N/A Fog Light Freezing Fog
11:52 PM 17.1 °F - 15.1 °F 92% 30.30 in 0.2 mi Calm Calm - N/A Fog Light Freezing Fog